Flight Briefing for CPX244

Departure Arrival
Norman Manley International Airport (MKJP)
Click to view FAA NOTAMS
Miami International Airport (KMIA)
Click to view FAA NOTAMS
Departure Time Arrival Time
N/A N/A
Aircraft Distance
B767-300BDSF 518nm
Departure METAR Arrival METAR
MKJP 181500Z 13008KT 9999 FEW022 28/19 Q1016 KMIA 181453Z 36005KT 10SM FEW010 SCT130 BKN240 23/19 A3006 RMK AO2 SLP178 T02330194 53013
Suggested Route
UCA UA301 URSUS FLIPR6


View recent IFR Routes data
Notes



Charts and Procedures

Charts for MKJP
No chart available
Charts for KMIA
No chart available

Windy.com Weather Map